FW2760 Weather Reports


time (UTC)temp
C
wind
direction
speed
KPH
gust
KPH
rain 1hr
cm
rain 24hr
cm
rain mn
cm
humidity
%
barometer
mb
20260509235948 30 139 3.2 11.3 0.00 2.69 2.69 42 1008.8
20260509235448 30 144 3.2 9.7 0.00 2.69 2.69 42 1008.8
20260509234948 30 99 4.8 11.3 0.00 2.69 2.69 43 1008.7
20260509234449 30 105 4.8 11.3 0.00 2.69 2.69 42 1008.6
20260509233943 30 117 3.2 12.9 0.00 2.69 2.69 42 1008.6
20260509233443 30 103 3.2 12.9 0.00 2.69 2.69 42 1008.6
20260509232944 30 89 3.2 11.3 0.00 2.69 2.69 43 1008.6
20260509232444 30 89 3.2 9.7 0.00 2.69 2.69 44 1008.5
20260509231942 30 88 3.2 9.7 0.00 2.69 2.69 44 1008.5
20260509231723 30 125 3.2 9.7 0.00 2.69 2.69 42 1008.6
20260509230937 30 126 3.2 11.3 0.00 2.69 2.69 43 1008.6
20260509230721 30 159 3.2 11.3 0.00 2.69 2.69 42 1008.5
20260509225936 30 148 3.2 9.7 0.00 2.69 2.69 43 1008.5
20260509225714 30 146 3.2 9.7 0.00 2.69 2.69 42 1008.5
20260509225220 30 138 3.2 12.9 0.00 2.69 2.69 42 1008.5
20260509224718 30 78 3.2 12.9 0.00 2.69 2.69 42 1008.6
20260509223934 30 78 1.6 6.4 0.00 2.69 2.69 43 1008.6
20260509223713 30 112 1.6 6.4 0.00 2.69 2.69 44 1008.7
20260509222933 30 112 3.2 6.4 0.00 2.69 2.69 42 1008.6
20260509222432 30 100 3.2 11.3 0.00 2.69 2.69 42 1008.6
20260509221930 30 117 3.2 11.3 0.00 2.69 2.69 42 1008.6
20260509221431 30 111 1.6 6.4 0.00 2.69 2.69 43 1008.5
20260509220923 30 87 3.2 8.0 0.00 2.69 2.69 43 1008.6
20260509220708 30 82 4.8 11.3 0.00 2.69 2.69 44 1008.6
20260509215922 30 133 4.8 11.3 0.00 2.69 2.69 42 1008.7
20260509215424 30 130 4.8 9.7 0.00 2.69 2.69 39 1008.6
20260509214924 30 74 4.8 9.7 0.00 2.69 2.69 41 1008.6
20260509214701 30 105 3.2 9.7 0.00 2.69 2.69 41 1008.7
20260509213922 30 117 3.2 9.7 0.00 2.69 2.69 44 1008.7
20260509213420 30 117 4.8 9.7 0.00 2.69 2.69 43 1008.8
20260509212918 30 121 4.8 9.7 0.00 2.69 2.69 43 1008.9
20260509212418 30 112 3.2 9.7 0.00 2.69 2.69 40 1009.0
20260509211918 30 110 3.2 8.0 0.00 2.69 2.69 37 1009.2
20260509211418 30 77 3.2 8.0 0.00 2.69 2.69 36 1009.1
20260509210934 30 92 4.8 9.7 0.00 2.69 2.69 42 1009.4
20260509210926 30 92 3.2 9.7 0.00 2.69 2.69 34 1009.1
20260509205912 29 119 4.8 9.7 0.00 2.69 2.69 42 1009.4
20260509205410 29 58 3.2 9.7 0.08 2.69 2.69 44 1009.3
20260509204909 29 91 3.2 9.7 0.56 2.69 2.69 42 1009.4
20260509204410 28 78 1.6 6.4 1.22 2.69 2.69 42 1009.6
20260509203902 28 30 0.0 4.8 1.68 2.69 2.69 43 1009.6
20260509203403 28 27 0.0 3.2 2.18 2.69 2.69 53 1009.7
20260509203145 27 27 0.0 3.2 2.36 2.69 2.69 56 1009.8
20260509202402 27 28 0.0 6.4 2.64 2.69 2.69 61 1009.7
20260509201903 26 19 0.0 6.4 2.67 2.69 2.69 63 1009.8
20260509201403 25 253 1.6 9.7 2.67 2.69 2.69 64 1009.9
20260509201144 24 253 4.8 12.9 2.67 2.69 2.69 66 1010.2
20260509200358 23 0 6.4 14.5 2.67 2.69 2.69 65 1010.6
20260509195855 23 0 12.9 32.2 2.64 2.67 2.69 59 1010.6
20260509195354 22 0 12.9 32.2 2.54 2.57 2.62 61 1011.1
20260509194850 20 0 6.4 29.0 2.11 2.13 2.18 69 1012.2
20260509194352 21 0 6.4 20.9 1.45 1.47 1.47 66 1012.1
20260509194132 22 0 8.0 20.9 0.99 1.02 1.04 64 1011.7
20260509193634 24 0 6.4 16.1 0.46 0.48 0.51 64 1011.4
20260509192852 26 225 6.4 20.9 0.30 0.33 0.38 62 1011.1
20260509192352 27 212 4.8 20.9 0.03 0.05 0.05 60 1010.9
20260509192128 28 163 3.2 9.7 0.00 0.03 0.03 61 1010.6
20260509191346 28 126 4.8 11.3 0.00 0.03 0.03 60 1010.2
20260509190848 28 132 3.2 11.3 0.00 0.03 0.03 60 1010.2
20260509190347 28 128 3.2 9.7 0.00 0.03 0.03 60 1010.0
20260509185847 28 132 4.8 11.3 0.00 0.03 0.03 60 1010.0
20260509185347 28 141 6.4 11.3 0.00 0.03 0.03 60 1010.2
20260509184842 29 128 4.8 11.3 0.00 0.03 0.03 59 1010.3
20260509184343 29 130 3.2 8.0 0.00 0.03 0.03 59 1010.4
20260509183844 29 223 3.2 11.3 0.00 0.03 0.03 59 1010.4
20260509183343 29 277 1.6 11.3 0.00 0.03 0.03 59 1010.5
20260509182843 30 236 3.2 11.3 0.00 0.03 0.03 58 1010.6
20260509182625 30 169 4.8 16.1 0.00 0.03 0.03 58 1010.7
20260509181839 30 234 3.2 16.1 0.00 0.03 0.03 57 1010.7
20260509181622 30 265 1.6 8.0 0.00 0.03 0.03 58 1010.8
20260509180839 30 278 1.6 8.0 0.00 0.03 0.03 55 1010.9
20260509180340 30 131 1.6 12.9 0.00 0.03 0.03 57 1011.1
20260509180120 30 154 3.2 12.9 0.00 0.03 0.03 55 1011.0
20260509175624 30 317 1.6 6.4 0.00 0.03 0.03 53 1011.0
20260509174835 30 287 1.6 6.4 0.00 0.03 0.03 55 1011.1
20260509174334 30 342 3.2 9.7 0.00 0.03 0.03 56 1011.0
20260509173836 29 284 3.2 11.3 0.00 0.03 0.03 56 1011.2
20260509173334 29 296 3.2 11.3 0.00 0.03 0.03 57 1011.3
20260509172834 29 246 1.6 6.4 0.00 0.03 0.03 59 1011.3
20260509172336 30 90 3.2 12.9 0.00 0.03 0.03 55 1011.5
20260509171833 30 165 3.2 12.9 0.00 0.03 0.03 56 1011.6
20260509171333 29 316 3.2 14.5 0.00 0.03 0.03 61 1011.7
20260509170827 30 311 3.2 14.5 0.00 0.03 0.03 59 1011.7
20260509170327 29 281 3.2 9.7 0.00 0.03 0.03 59 1011.7
20260509165828 29 202 3.2 9.7 0.00 0.03 0.03 61 1011.7
20260509165328 29 225 3.2 11.3 0.00 0.03 0.03 62 1011.6
20260509164825 29 262 1.6 11.3 0.00 0.03 0.03 62 1011.6
20260509164325 28 236 3.2 9.7 0.00 0.03 0.03 65 1011.5
20260509163823 28 252 4.8 11.3 0.00 0.03 0.03 65 1011.7
20260509163322 28 182 3.2 16.1 0.00 0.03 0.03 63 1011.7
20260509162822 28 260 3.2 16.1 0.00 0.03 0.03 65 1011.6
20260509162322 28 160 4.8 17.7 0.00 0.03 0.03 65 1011.6
20260509161820 28 218 6.4 17.7 0.00 0.03 0.03 65 1011.5
20260509161320 28 229 6.4 17.7 0.00 0.03 0.03 66 1011.5
20260509160847 27 200 6.4 17.7 0.00 0.03 0.03 66 1011.4
20260509160838 27 164 6.4 17.7 0.00 0.03 0.03 66 1011.4
20260509155816 27 154 6.4 19.3 0.00 0.03 0.03 67 1011.2
20260509155316 27 218 4.8 19.3 0.00 0.03 0.03 67 1011.3
20260509154841 27 197 4.8 14.5 0.00 0.03 0.03 69 1011.4
20260509154832 27 212 4.8 11.3 0.00 0.03 0.03 68 1011.5
20260509153818 26 146 4.8 14.5 0.00 0.03 0.03 70 1011.5
20260509153318 26 189 6.4 17.7 0.00 0.03 0.03 70 1011.4
20260509152814 26 211 6.4 17.7 0.00 0.03 0.03 70 1011.1
20260509152310 26 199 6.4 17.7 0.00 0.03 0.03 71 1011.2
20260509151811 26 201 6.4 17.7 0.00 0.03 0.03 71 1011.2
20260509151311 25 207 6.4 16.1 0.00 0.03 0.03 72 1011.2
20260509151051 25 224 4.8 16.1 0.00 0.03 0.03 72 1011.1
20260509150309 25 208 3.2 11.3 0.00 0.03 0.03 73 1011.1
20260509145803 25 215 3.2 11.3 0.00 0.03 0.03 74 1011.2
20260509145305 24 212 4.8 17.7 0.00 0.03 0.03 74 1011.2
20260509145042 24 209 4.8 17.7 0.00 0.03 0.03 76 1011.1
20260509144303 24 186 4.8 16.1 0.00 0.03 0.03 77 1011.0
20260509143832 23 226 3.2 11.3 0.00 0.03 0.03 80 1010.8
20260509143823 23 153 3.2 11.3 0.00 0.03 0.03 79 1010.9
20260509142802 23 182 6.4 16.1 0.00 0.03 0.03 80 1010.8
20260509142537 23 199 8.0 19.3 0.00 0.03 0.03 80 1010.8
20260509141755 23 166 8.0 19.3 0.00 0.03 0.03 80 1010.7
20260509141255 23 174 6.4 16.1 0.00 0.03 0.03 80 1010.6
20260509141035 24 165 6.4 16.1 0.00 0.03 0.03 82 1010.5
20260509140255 23 160 4.8 16.1 0.00 0.03 0.03 82 1010.3
20260509135756 24 148 1.6 11.3 0.00 0.03 0.03 82 1010.3
20260509135249 23 169 0.0 11.3 0.00 0.03 0.03 83 1010.5
20260509134747 23 154 1.6 8.0 0.00 0.03 0.03 83 1010.6
20260509134245 23 154 3.2 11.3 0.00 0.03 0.03 83 1010.8
20260509133743 23 156 3.2 11.3 0.00 0.03 0.03 83 1010.7
20260509133244 23 163 1.6 9.7 0.00 0.03 0.03 83 1010.8
20260509133024 22 208 1.6 4.8 0.00 0.03 0.03 83 1010.9
20260509132239 22 208 0.0 4.8 0.00 0.03 0.03 83 1010.9
20260509132019 22 269 0.0 3.2 0.00 0.03 0.03 83 1010.9
20260509131239 22 275 1.6 4.8 0.00 0.03 0.03 83 1011.0
20260509130737 22 276 1.6 4.8 0.00 0.03 0.03 83 1011.0
20260509130236 22 284 0.0 4.8 0.00 0.03 0.03 83 1011.0
20260509130019 22 288 1.6 3.2 0.00 0.03 0.03 83 1011.0
20260509125232 22 288 1.6 4.8 0.00 0.03 0.03 83 1010.9
20260509124731 22 288 1.6 4.8 0.00 0.03 0.03 83 1011.0
20260509124231 22 256 1.6 4.8 0.00 0.03 0.03 83 1010.8
20260509124015 22 208 1.6 4.8 0.00 0.03 0.03 83 1010.7
20260509123230 22 191 1.6 4.8 0.00 0.03 0.03 83 1010.7
20260509122725 22 109 0.0 4.8 0.00 0.03 0.03 83 1010.6
20260509122224 22 0 0.0 0.0 0.00 0.03 0.03 83 1010.7
20260509121957 22 32 0.0 0.0 0.00 0.03 0.03 83 1010.7
20260509121219 22 32 0.0 0.0 0.00 0.03 0.03 83 1010.7
20260509121001 22 32 0.0 0.0 0.00 0.03 0.03 82 1010.7
20260509120215 22 32 0.0 1.6 0.00 0.03 0.03 82 1010.7
20260509115715 22 32 1.6 6.4 0.00 0.03 0.03 82 1010.6
20260509115213 22 32 1.6 6.4 0.00 0.03 0.03 82 1010.9
20260509114713 22 0 0.0 4.8 0.03 0.03 0.03 82 1011.1
20260509114213 22 355 1.6 4.8 0.03 0.03 0.03 82 1011.2
20260509113714 22 316 1.6 6.4 0.03 0.03 0.03 82 1011.3
20260509113205 22 305 1.6 8.0 0.03 0.03 0.03 82 1011.4
20260509112706 22 335 1.6 8.0 0.03 0.03 0.03 82 1011.6
20260509112206 22 22 1.6 6.4 0.03 0.03 0.03 82 1011.8
20260509112013 22 321 1.6 8.0 0.03 0.03 0.03 82 1011.9
20260509112009 22 355 1.6 8.0 0.03 0.03 0.03 82 1011.9
20260509110707 22 74 0.0 3.2 0.03 0.03 0.03 82 1011.8
20260509110202 22 74 0.0 3.2 0.03 0.03 0.03 82 1011.7
20260509105702 22 74 0.0 0.0 0.03 0.03 0.03 82 1011.7
20260509105203 22 74 0.0 0.0 0.03 0.03 0.03 82 1011.9
20260509104941 22 74 0.0 4.8 0.00 0.00 0.00 82 1011.9
20260509104200 22 74 0.0 4.8 0.00 0.00 0.00 82 1011.8
20260509103701 22 74 0.0 3.2 0.00 0.00 0.00 82 1011.8
20260509103156 22 74 0.0 4.8 0.00 0.00 0.00 82 1011.8
20260509102939 22 74 0.0 4.8 0.00 0.00 0.00 82 1011.9
20260509102157 22 76 1.6 4.8 0.00 0.00 0.00 81 1011.9
20260509101657 22 77 1.6 4.8 0.00 0.00 0.00 81 1011.7
20260509101154 22 80 0.0 4.8 0.00 0.00 0.00 81 1011.7
20260509100655 22 153 0.0 0.0 0.00 0.00 0.00 81 1011.5
20260509100149 22 163 0.0 0.0 0.00 0.00 0.00 81 1011.4
20260509095923 22 163 0.0 0.0 0.00 0.00 0.00 81 1011.2
20260509095145 22 163 0.0 0.0 0.00 0.00 0.00 81 1011.0
20260509094643 22 163 0.0 0.0 0.00 0.00 0.00 81 1010.9
20260509094143 22 163 0.0 0.0 0.00 0.00 0.00 81 1010.6
20260509093637 22 163 0.0 0.0 0.00 0.00 0.00 81 1010.6
20260509093134 22 163 0.0 1.6 0.00 0.00 0.00 81 1010.4
20260509092632 22 163 0.0 1.6 0.00 0.00 0.00 81 1010.4
20260509092408 22 163 0.0 1.6 0.00 0.00 0.00 80 1010.3
20260509091632 22 163 0.0 0.0 0.00 0.00 0.00 80 1010.4
20260509091129 22 163 0.0 0.0 0.00 0.00 0.00 80 1010.5
20260509090627 22 163 0.0 0.0 0.00 0.00 0.00 80 1010.5
20260509090127 22 163 0.0 0.0 0.00 0.00 0.00 80 1010.5
20260509085627 22 163 0.0 0.0 0.00 0.00 0.00 79 1010.6
20260509085124 22 163 0.0 0.0 0.00 0.00 0.00 79 1010.6
20260509084625 22 163 0.0 0.0 0.00 0.00 0.00 79 1010.5
20260509084122 22 163 0.0 0.0 0.00 0.00 0.00 79 1010.6
20260509083621 22 163 0.0 1.6 0.00 0.00 0.00 79 1010.7
20260509083121 22 163 0.0 1.6 0.00 0.00 0.00 78 1010.8
20260509082621 22 163 0.0 0.0 0.00 0.00 0.00 78 1011.0
20260509082119 22 163 0.0 1.6 0.00 0.00 0.00 78 1010.9
20260509081901 22 163 0.0 1.6 0.00 0.00 0.00 77 1010.7
20260509081116 22 163 0.0 1.6 0.00 0.00 0.00 77 1010.7
20260509080614 22 163 0.0 0.0 0.00 0.00 0.00 77 1010.9
20260509080115 22 163 0.0 0.0 0.00 0.00 0.00 76 1010.8
20260509075610 22 163 0.0 0.0 0.00 0.00 0.00 76 1011.0
20260509075109 22 163 0.0 0.0 0.00 0.00 0.00 76 1011.0
20260509074612 22 163 0.0 0.0 0.00 0.00 0.00 76 1010.9
20260509074111 22 163 0.0 0.0 0.00 0.00 0.00 75 1011.0
20260509073609 22 163 0.0 0.0 0.00 0.00 0.00 75 1011.0
20260509073349 22 163 0.0 0.0 0.00 0.00 0.00 74 1011.1
20260509072843 22 163 0.0 0.0 0.00 0.00 0.00 74 1011.3
20260509072105 22 163 0.0 0.0 0.00 0.00 0.00 74 1011.3
20260509071607 22 163 0.0 0.0 0.00 0.00 0.00 73 1011.5
20260509071341 22 163 0.0 0.0 0.00 0.00 0.00 73 1011.5
20260509070606 22 163 0.0 0.0 0.00 0.00 0.00 73 1011.4
20260509070107 22 163 0.0 0.0 0.00 0.00 0.00 72 1011.4
20260509065602 22 163 0.0 0.0 0.00 0.00 0.00 72 1011.0
20260509065101 22 163 0.0 0.0 0.00 0.00 0.00 72 1010.9
20260509064841 22 163 0.0 6.4 0.00 0.00 0.00 72 1010.9
20260509064102 22 163 1.6 6.4 0.00 0.00 0.00 71 1010.9
20260509063601 22 152 1.6 6.4 0.00 0.00 0.00 71 1011.2
20260509063344 22 145 3.2 8.0 0.00 0.00 0.00 71 1011.1
20260509062557 22 135 3.2 11.3 0.00 0.00 0.00 70 1011.0
20260509062058 22 137 1.6 11.3 0.00 0.00 0.00 70 1010.8
20260509061558 22 139 3.2 11.3 0.00 0.00 0.00 70 1010.7
20260509061340 22 147 3.2 11.3 0.00 0.00 0.00 70 1010.8
20260509060558 22 159 3.2 11.3 0.00 0.00 0.00 70 1010.6
20260509060059 22 163 4.8 14.5 0.00 0.00 0.00 70 1010.6
20260509055553 22 160 4.8 14.5 0.00 0.00 0.00 69 1010.6
20260509055054 22 179 4.8 11.3 0.00 0.00 0.00 69 1010.8
20260509054837 22 181 6.4 12.9 0.00 0.00 0.00 69 1010.8
20260509054053 22 161 6.4 16.1 0.00 0.00 0.00 69 1010.5
20260509053553 22 161 4.8 16.1 0.00 0.00 0.00 69 1010.3
20260509053055 22 140 4.8 11.3 0.00 0.00 0.00 69 1010.2
20260509052550 22 148 4.8 11.3 0.00 0.00 0.00 69 1010.2
20260509052049 22 148 4.8 11.3 0.00 0.00 0.00 69 1010.1
20260509051545 23 144 3.2 8.0 0.00 0.00 0.00 68 1010.2
20260509051043 23 153 3.2 8.0 0.00 0.00 0.00 68 1010.1
20260509050542 23 154 1.6 4.8 0.00 0.00 0.00 68 1010.0
20260509050042 23 150 1.6 4.8 0.00 0.00 0.00 68 1010.1
20260509045816 23 150 1.6 4.8 0.00 0.00 0.00 68 1010.1
20260509045323 23 147 1.6 4.8 0.00 0.00 0.00 68 1010.2
20260509044535 23 146 0.0 4.8 0.00 0.00 0.00 68 1010.2
20260509044032 23 147 1.6 6.4 0.00 0.00 0.00 68 1010.2
20260509043530 23 148 1.6 6.4 0.00 0.00 0.00 68 1010.3
20260509043029 23 145 1.6 4.8 0.00 0.00 0.00 68 1010.5
20260509042528 23 156 1.6 8.0 0.00 0.00 0.00 68 1010.4
20260509042025 23 138 1.6 8.0 0.00 0.00 0.00 68 1010.6
20260509041809 23 163 1.6 6.4 0.00 0.00 0.00 68 1010.6
20260509041307 23 163 1.6 8.0 0.00 0.00 0.00 68 1010.8
20260509040524 23 163 1.6 8.0 0.00 0.00 0.00 68 1010.8
20260509040022 23 165 1.6 8.0 0.00 0.00 0.00 68 1010.7
20260509035521 23 163 1.6 8.0 0.00 0.00 0.00 68 1010.6
20260509035016 23 154 1.6 8.0 0.00 0.00 0.00 68 1010.4
20260509034517 23 157 0.0 3.2 0.00 0.00 0.00 68 1010.4
20260509034018 22 156 0.0 4.8 0.00 0.00 0.00 68 1010.4
20260509033516 22 154 1.6 4.8 0.00 0.00 0.00 68 1010.4
20260509033016 23 148 1.6 8.0 0.00 0.00 0.00 67 1010.2
20260509032516 23 147 3.2 9.7 0.00 0.00 0.00 67 1010.2
20260509032014 23 163 3.2 9.7 0.00 0.00 0.00 67 1010.2
20260509031511 23 149 1.6 4.8 0.00 0.00 0.00 67 1010.3
20260509031011 23 143 1.6 4.8 0.00 0.00 0.00 67 1010.2
20260509030512 23 143 0.0 4.8 0.00 0.00 0.00 67 1010.2
20260509030011 23 142 0.0 0.0 0.00 0.00 0.00 67 1010.1
20260509025511 23 142 0.0 0.0 0.00 0.00 0.00 67 1010.1
20260509025006 23 142 0.0 0.0 0.00 0.00 0.00 67 1010.1
20260509024507 23 142 0.0 4.8 0.00 0.00 0.00 67 1010.0
20260509024002 23 142 1.6 4.8 0.00 0.00 0.00 66 1010.0
20260509023503 23 142 0.0 3.2 0.00 0.00 0.00 66 1009.9
20260509023004 23 142 1.6 8.0 0.00 0.00 0.00 66 1009.8
20260509022504 23 142 3.2 8.0 0.00 0.00 0.00 65 1009.7
20260509022000 23 142 1.6 4.8 0.00 0.00 0.00 65 1009.7
20260509021744 23 138 1.6 4.8 0.00 0.00 0.00 65 1009.6
20260509020959 23 138 1.6 8.0 0.00 0.00 0.00 65 1009.6
20260509020458 23 138 1.6 8.0 0.00 0.00 0.00 65 1009.5
20260509020236 23 139 3.2 8.0 0.00 0.00 0.00 64 1009.6
20260509015458 24 128 3.2 9.7 0.00 0.00 0.00 64 1009.4
20260509014952 24 140 4.8 11.3 0.00 0.00 0.00 64 1009.4
20260509014728 24 167 3.2 11.3 0.00 0.00 0.00 64 1009.3
20260509013951 24 137 3.2 9.7 0.00 0.00 0.00 64 1009.3
20260509013452 24 129 3.2 9.7 0.00 0.00 0.00 64 1009.3
20260509012952 24 148 3.2 9.7 0.00 0.00 0.00 63 1009.3
20260509012732 24 139 3.2 9.7 0.00 0.00 0.00 63 1009.3
20260509011946 25 156 3.2 9.7 0.00 0.00 0.00 63 1009.3
20260509011443 25 103 3.2 9.7 0.00 0.00 0.00 63 1009.3
20260509010942 25 152 3.2 9.7 0.00 0.00 0.00 63 1009.4
20260509010443 25 140 3.2 11.3 0.00 0.00 0.00 62 1009.3
20260509005944 25 154 3.2 11.3 0.00 0.00 0.00 62 1009.4
20260509005445 25 138 3.2 11.3 0.00 0.00 0.00 62 1009.3
20260509004942 25 158 4.8 11.3 0.00 0.00 0.00 62 1009.2
20260509004439 25 154 3.2 9.7 0.00 0.00 0.00 62 1009.1
20260509003939 25 162 3.2 9.7 0.00 0.00 0.00 62 1009.2
20260509003440 25 148 4.8 11.3 0.00 0.00 0.00 61 1009.3
20260509002938 25 132 4.8 11.3 0.00 0.00 0.00 61 1009.3
20260509002438 25 132 4.8 11.3 0.00 0.00 0.00 61 1009.4
20260509001932 25 114 6.4 14.5 0.00 0.00 0.00 61 1009.3
20260509001434 25 144 4.8 14.5 0.00 0.00 0.00 60 1009.3
20260509000931 25 154 4.8 12.9 0.00 0.00 0.00 60 1009.4